Weather in Americus

United States     32°04′18″N   84°13′57″W
temp.,
°C
wind,
m/s
gust,
m/s
humid.,
%
clouds,
%
prec.,
mm/h
press.,
hPa
HPBL,
m
18 september, sat
sat1823:00+24ene228975 0.1 101929
02:00+23ene239153 0.1 101856
05:00+22ne2392100 0.0 101870
08:00+22ne2490100 0.0 1019117
11:00+25ene2478100 0.0 1019393
14:00+29e3459100 1.2 10171356
17:00+27ne3477100 2.7 1016212
20:00+25ne1280100 7.6 101612
19 september, sun
sun1923:00+23nne2489100 1.4 1017112
02:00+23nne2393100 2.1 101689
05:00+22nne1195100 0.4 101628
08:00+22ne2495100 1.6 1017100
11:00+23e2492100 1.1 1018161
14:00+23ene2591100 4.2 1017325
17:00+23ese2792100 0.2 1016433
20:00+22ene2696100 0.7 1016243
20 september, mon
mon2023:00+22e3797100 0.3 1017275
02:00+22e3898100 1.4 1016382
05:00+21e2798100 0.3 1016275
08:00+22e2597100 0.5 1017228
11:00+25ese3483100 0.5 1018688
14:00+26ese2279100 3.8 1017613
17:00+27ene2277100 1.6 1015711
20:00+24ne359398 2.6 1017123
21 september, tue
tue2123:00+23ene369733 0.0 1017249
02:00+22ene369993 0.0 1017288
05:00+22e249790 0.1 1017269
08:00+22ene239683 0.1 1018188
11:00+24ne228769 0.3 1019382
14:00+28n226931 0.4 1017967
17:00+29nnw236579 0.1 10161016
20:00+24ne348561 0.8 101687
22 september, wed
wed2223:00+22ne379711 0.0 1017225
02:00+22nne349779 0.0 1016230
05:00+22nne2492100 0.0 1015321
08:00+22nne2292100 0.0 1015172
11:00+24n3481100 0.0 1016697
14:00+27n356655 0.0 10141209
17:00+27nnw3466100 0.2 1012307
20:00+23nnw498466 0.8 1014403